| time (UTC) | temp F | wind direction | speed MPH | gust MPH | rain 1hr in | rain 24hr in | rain mn in | humidity % | barometer mb |
| 20260904223026 | 85 | 286 | 4.0 | 11.0 | 0.00 | 0.47 | 0.47 | 64 | 1011.5 |
| 20260904221532 | 86 | 315 | 5.0 | 11.0 | 0.00 | 0.47 | 0.47 | 62 | 1011.5 |
| 20260904220008 | 87 | 320 | 5.0 | 14.0 | 0.00 | 0.47 | 0.47 | 58 | 1011.4 |
| 20260904214512 | 89 | 258 | 5.0 | 12.0 | 0.00 | 0.47 | 0.47 | 56 | 1011.4 |
| 20260904213011 | 90 | 327 | 6.0 | 12.0 | 0.00 | 0.47 | 0.47 | 55 | 1011.5 |
| 20260904211502 | 89 | 285 | 8.0 | 12.0 | 0.00 | 0.47 | 0.47 | 54 | 1011.5 |
| 20260904210006 | 90 | 297 | 6.0 | 12.0 | 0.00 | 0.47 | 0.47 | 54 | 1011.5 |
| 20260904204510 | 90 | 336 | 5.0 | 12.0 | 0.00 | 0.47 | 0.47 | 53 | 1011.5 |
| 20260904203016 | 90 | 287 | 7.0 | 11.0 | 0.00 | 0.47 | 0.47 | 52 | 1011.4 |
| 20260904201524 | 92 | 296 | 8.0 | 13.0 | 0.00 | 0.47 | 0.47 | 51 | 1011.5 |
| 20260904200038 | 92 | 324 | 5.0 | 10.0 | 0.00 | 0.47 | 0.47 | 51 | 1011.8 |
| 20260904194509 | 91 | 290 | 6.0 | 13.0 | 0.00 | 0.47 | 0.47 | 52 | 1011.9 |
| 20260904193014 | 92 | 316 | 3.0 | 12.0 | 0.00 | 0.47 | 0.47 | 51 | 1012.2 |
| 20260904191522 | 94 | 297 | 4.0 | 11.0 | 0.00 | 0.47 | 0.47 | 49 | 1012.3 |
| 20260904190024 | 94 | 221 | 2.0 | 9.0 | 0.00 | 0.47 | 0.47 | 54 | 1012.5 |
| 20260904184516 | 92 | 190 | 4.0 | 10.0 | 0.00 | 0.47 | 0.47 | 58 | 1012.5 |
| 20260904183008 | 90 | 253 | 4.0 | 10.0 | 0.00 | 0.47 | 0.47 | 54 | 1012.7 |
| 20260904181518 | 91 | 284 | 6.0 | 9.0 | 0.00 | 0.47 | 0.47 | 53 | 1012.8 |
| 20260904180023 | 90 | 282 | 6.0 | 10.0 | 0.00 | 0.47 | 0.47 | 54 | 1012.7 |
| 20260904174520 | 90 | 313 | 6.0 | 10.0 | 0.00 | 0.47 | 0.47 | 55 | 1012.8 |
| 20260904173023 | 89 | 292 | 3.0 | 9.0 | 0.00 | 0.47 | 0.47 | 56 | 1012.9 |
| 20260904171521 | 90 | 259 | 2.0 | 8.0 | 0.00 | 0.47 | 0.47 | 56 | 1012.8 |
| 20260904170019 | 89 | 350 | 3.0 | 11.0 | 0.00 | 0.47 | 0.47 | 57 | 1012.8 |
| 20260904164524 | 88 | 296 | 5.0 | 11.0 | 0.00 | 0.47 | 0.47 | 58 | 1012.6 |
| 20260904163014 | 87 | 290 | 4.0 | 12.0 | 0.00 | 0.47 | 0.47 | 61 | 1012.8 |
| 20260904161557 | 87 | 9 | 5.0 | 12.0 | 0.00 | 0.47 | 0.47 | 61 | 1012.8 |
| 20260904160016 | 86 | 344 | 5.0 | 13.0 | 0.00 | 0.47 | 0.47 | 62 | 1013.0 |
| 20260904154526 | 86 | 340 | 5.0 | 15.0 | 0.00 | 0.47 | 0.47 | 63 | 1013.2 |
| 20260904153034 | 85 | 338 | 6.0 | 14.0 | 0.00 | 0.47 | 0.47 | 64 | 1013.1 |
| 20260904151521 | 84 | 14 | 4.0 | 15.0 | 0.00 | 0.47 | 0.47 | 66 | 1013.2 |
| 20260904150014 | 83 | 337 | 6.0 | 14.0 | 0.00 | 0.47 | 0.47 | 67 | 1013.2 |
| 20260904144516 | 82 | 9 | 8.0 | 18.0 | 0.00 | 0.47 | 0.47 | 68 | 1013.0 |
| 20260904143024 | 82 | 332 | 6.0 | 13.0 | 0.00 | 0.47 | 0.47 | 70 | 1012.9 |
| 20260904141527 | 81 | 313 | 8.0 | 16.0 | 0.00 | 0.47 | 0.47 | 72 | 1012.9 |
| 20260904140010 | 80 | 344 | 8.0 | 13.0 | 0.00 | 0.47 | 0.47 | 75 | 1012.9 |
| 20260904134514 | 79 | 322 | 3.0 | 12.0 | 0.00 | 0.47 | 0.47 | 77 | 1012.9 |
| 20260904133019 | 79 | 308 | 8.0 | 16.0 | 0.00 | 0.47 | 0.47 | 78 | 1012.8 |
| 20260904131528 | 78 | 331 | 8.0 | 16.0 | 0.00 | 0.47 | 0.47 | 80 | 1013.1 |
| 20260904130027 | 77 | 301 | 7.0 | 14.0 | 0.00 | 0.47 | 0.47 | 82 | 1012.7 |
| 20260904124511 | 76 | 308 | 8.0 | 15.0 | 0.00 | 0.47 | 0.47 | 82 | 1012.8 |
| 20260904123041 | 76 | 292 | 5.0 | 17.0 | 0.00 | 0.47 | 0.47 | 84 | 1012.9 |
| 20260904121531 | 76 | 282 | 4.0 | 16.0 | 0.00 | 0.47 | 0.47 | 85 | 1012.8 |
| 20260904120042 | 75 | 275 | 6.0 | 14.0 | 0.00 | 0.47 | 0.47 | 87 | 1012.8 |
| 20260904114528 | 75 | 269 | 7.0 | 13.0 | 0.00 | 0.47 | 0.47 | 87 | 1013.0 |
| 20260904113028 | 75 | 277 | 5.0 | 12.0 | 0.00 | 0.48 | 0.47 | 88 | 1012.7 |
| 20260904111526 | 75 | 337 | 4.0 | 12.0 | 0.00 | 0.48 | 0.47 | 88 | 1012.4 |
| 20260904110030 | 75 | 288 | 5.0 | 13.0 | 0.00 | 0.48 | 0.47 | 88 | 1012.4 |
| 20260904104531 | 75 | 251 | 5.0 | 11.0 | 0.00 | 0.48 | 0.47 | 88 | 1012.0 |
| 20260904103018 | 75 | 271 | 7.0 | 14.0 | 0.00 | 0.48 | 0.47 | 89 | 1012.2 |
| 20260904101512 | 75 | 250 | 2.0 | 10.0 | 0.00 | 0.48 | 0.47 | 89 | 1012.3 |
| 20260904100003 | 75 | 256 | 6.0 | 12.0 | 0.00 | 0.50 | 0.47 | 88 | 1012.2 |
| 20260904094504 | 75 | 260 | 8.0 | 15.0 | 0.00 | 0.66 | 0.47 | 88 | 1012.3 |
| 20260904093007 | 75 | 240 | 5.0 | 15.0 | 0.00 | 0.69 | 0.47 | 88 | 1012.1 |
| 20260904091519 | 75 | 254 | 8.0 | 13.0 | 0.00 | 0.71 | 0.47 | 89 | 1012.2 |
| 20260904090004 | 74 | 239 | 4.0 | 13.0 | 0.00 | 0.71 | 0.47 | 90 | 1012.1 |
| 20260904084503 | 74 | 272 | 5.0 | 14.0 | 0.00 | 0.74 | 0.47 | 91 | 1012.4 |
| 20260904083007 | 74 | 242 | 4.0 | 12.0 | 0.12 | 0.75 | 0.47 | 91 | 1012.7 |
| 20260904081512 | 74 | 230 | 4.0 | 14.0 | 0.44 | 0.75 | 0.47 | 91 | 1012.7 |
| 20260904080016 | 74 | 227 | 8.0 | 15.0 | 0.44 | 0.75 | 0.47 | 90 | 1012.8 |
| 20260904074503 | 74 | 199 | 8.0 | 19.0 | 0.44 | 0.78 | 0.47 | 88 | 1012.7 |
| 20260904073004 | 75 | 201 | 16.0 | 27.0 | 0.32 | 0.80 | 0.35 | 88 | 1013.2 |
| 20260904071515 | 79 | 287 | 8.0 | 19.0 | 0.00 | 0.54 | 0.03 | 83 | 1013.3 |
| 20260904070015 | 79 | 252 | 5.0 | 15.0 | 0.03 | 0.85 | 0.03 | 88 | 1012.1 |
| 20260904064519 | 79 | 243 | 4.0 | 9.0 | 0.03 | 0.85 | 0.03 | 89 | 1012.4 |
| 20260904063004 | 79 | 254 | 2.0 | 8.0 | 0.03 | 0.85 | 0.03 | 89 | 1012.3 |
| 20260904061506 | 79 | 297 | 1.0 | 4.0 | 0.03 | 0.85 | 0.03 | 88 | 1012.1 |
| 20260904060012 | 78 | 244 | 1.0 | 4.0 | 0.00 | 0.82 | 0.00 | 88 | 1012.5 |
| 20260904055120 | 78 | 173 | 1.0 | 3.0 | 0.00 | 0.82 | 0.00 | 88 | 1012.5 |
| 20260904051505 | 78 | 175 | 0.0 | 4.0 | 0.00 | 0.82 | 0.00 | 87 | 1012.8 |
| 20260904050007 | 78 | 180 | 0.0 | 1.0 | 0.00 | 0.82 | 0.00 | 86 | 1013.1 |
| 20260904044515 | 78 | 180 | 0.0 | 3.0 | 0.00 | 0.82 | 0.00 | 86 | 1012.8 |
| 20260904043029 | 79 | 235 | 0.0 | 1.0 | 0.00 | 0.82 | 0.00 | 84 | 1013.3 |
| 20260904041529 | 79 | 236 | 0.0 | 1.0 | 0.00 | 0.82 | 0.00 | 83 | 1013.4 |
| 20260904040004 | 79 | 236 | 0.0 | 2.0 | 0.00 | 0.82 | 0.00 | 83 | 1013.8 |
| 20260904034508 | 79 | 237 | 0.0 | 2.0 | 0.00 | 0.82 | 0.82 | 80 | 1013.9 |
| 20260904033022 | 80 | 237 | 1.0 | 4.0 | 0.00 | 0.82 | 0.82 | 80 | 1014.2 |
| 20260904031522 | 80 | 247 | 1.0 | 4.0 | 0.00 | 0.82 | 0.82 | 77 | 1014.2 |
| 20260904030036 | 80 | 246 | 1.0 | 3.0 | 0.00 | 0.82 | 0.82 | 76 | 1013.7 |
| 20260904024508 | 81 | 244 | 1.0 | 4.0 | 0.00 | 0.82 | 0.82 | 76 | 1013.5 |
| 20260904023011 | 81 | 247 | 0.0 | 4.0 | 0.00 | 0.82 | 0.82 | 76 | 1013.9 |
| 20260904021527 | 81 | 251 | 1.0 | 6.0 | 0.00 | 0.82 | 0.82 | 76 | 1014.1 |
| 20260904020024 | 81 | 273 | 1.0 | 6.0 | 0.00 | 0.82 | 0.82 | 75 | 1014.5 |
| 20260904014528 | 81 | 258 | 0.0 | 4.0 | 0.00 | 0.82 | 0.82 | 74 | 1014.5 |
| 20260904013013 | 81 | 266 | 2.0 | 7.0 | 0.00 | 0.82 | 0.82 | 74 | 1014.6 |
| 20260904011515 | 81 | 266 | 2.0 | 7.0 | 0.00 | 0.82 | 0.82 | 75 | 1014.6 |
| 20260904010024 | 81 | 267 | 2.0 | 6.0 | 0.00 | 0.82 | 0.82 | 76 | 1014.8 |
| 20260904004530 | 81 | 248 | 2.0 | 6.0 | 0.00 | 0.82 | 0.82 | 77 | 1014.9 |
| 20260904003034 | 82 | 274 | 2.0 | 7.0 | 0.00 | 0.82 | 0.82 | 75 | 1014.5 |
| 20260904001532 | 82 | 265 | 2.0 | 8.0 | 0.00 | 0.82 | 0.82 | 75 | 1014.4 |
| 20260904000017 | 82 | 287 | 3.0 | 10.0 | 0.00 | 0.82 | 0.82 | 74 | 1014.2 |
| 20260903234524 | 83 | 283 | 4.0 | 10.0 | 0.00 | 0.82 | 0.82 | 74 | 1014.1 |
| 20260903233036 | 84 | 238 | 2.0 | 8.0 | 0.00 | 0.82 | 0.82 | 74 | 1014.0 |
| 20260903231541 | 84 | 258 | 5.0 | 11.0 | 0.00 | 0.82 | 0.82 | 72 | 1013.8 |
| 20260903230035 | 86 | 253 | 5.0 | 12.0 | 0.00 | 0.82 | 0.82 | 70 | 1013.5 |
| 20260903224515 | 86 | 239 | 5.0 | 12.0 | 0.00 | 0.82 | 0.82 | 70 | 1013.5 |